OBC57 UUML-UUEE

Flight info

Callsign OBC57
Flight time 0h 35m
Altitude 2500
Route DCT
Aircraft DA50/L-SDFGY/S

Departure

Time 2026-04-25 08:37
Airport Severka Airfield (UUML)

Arrival

Time 2026-04-25 09:12
Airport Sheremetyevo International Airport (UUEE)
Time Latitude Longitude Altitude Speed Heading
2026-04-25 08:07 55.20697 38.67448 427 ft 0 kts 180°
2026-04-25 08:29 55.20706 38.67451 427 ft 2 kts 206°
2026-04-25 08:30 55.20714 38.67475 424 ft 2 kts 244°
2026-04-25 08:30 55.20729 38.67475 427 ft 2 kts 160°
2026-04-25 08:30 55.20735 38.67472 421 ft 0 kts 164°
2026-04-25 08:33 55.20734 38.67472 421 ft 3 kts 164°
2026-04-25 08:33 55.20619 38.67512 418 ft 20 kts 167°
2026-04-25 08:34 55.20556 38.67537 427 ft 0 kts 166°
2026-04-25 08:35 55.20554 38.67538 427 ft 4 kts 165°
2026-04-25 08:35 55.20533 38.67577 427 ft 0 kts 54°
2026-04-25 08:36 55.20602 38.67763 429 ft 50 kts 56°
2026-04-25 08:36 55.20874 38.68479 483 ft 81 kts 52°
2026-04-25 08:36 55.21219 38.69216 759 ft 78 kts 52°
2026-04-25 08:36 55.21591 38.69925 1016 ft 81 kts 59°
2026-04-25 08:37 55.21915 38.70741 1265 ft 81 kts 57°
2026-04-25 08:37 55.22241 38.71545 1515 ft 80 kts 56°
2026-04-25 08:37 55.22563 38.72341 1769 ft 81 kts 57°
2026-04-25 08:37 55.22887 38.73139 2010 ft 78 kts 57°
2026-04-25 08:38 55.23187 38.73920 2262 ft 77 kts 75°
2026-04-25 08:38 55.22925 38.74568 2477 ft 77 kts 187°
2026-04-25 08:38 55.22644 38.74223 2617 ft 81 kts 253°
2026-04-25 08:38 55.22871 38.73388 2837 ft 84 kts 327°
2026-04-25 08:39 55.23417 38.72695 2837 ft 106 kts 325°
2026-04-25 08:39 55.24070 38.71883 2843 ft 122 kts 324°
2026-04-25 08:39 55.24729 38.70916 2813 ft 125 kts 313°
2026-04-25 08:39 55.25412 38.69982 2832 ft 126 kts 325°
2026-04-25 08:40 55.26135 38.69097 2832 ft 127 kts 325°
2026-04-25 08:40 55.26859 38.68213 2838 ft 127 kts 325°
2026-04-25 08:40 55.27591 38.67314 2840 ft 132 kts 324°
2026-04-25 08:40 55.28371 38.66355 2840 ft 142 kts 325°
2026-04-25 08:41 55.29141 38.65417 2832 ft 135 kts 325°
2026-04-25 08:41 55.29935 38.64454 2833 ft 141 kts 325°
2026-04-25 08:41 55.30744 38.63464 2842 ft 144 kts 325°
2026-04-25 08:41 55.31587 38.62437 2842 ft 150 kts 326°
2026-04-25 08:42 55.32441 38.61397 2842 ft 149 kts 325°
2026-04-25 08:42 55.33275 38.60325 2838 ft 146 kts 323°
2026-04-25 08:42 55.34066 38.59296 2831 ft 137 kts 323°
2026-04-25 08:42 55.34814 38.58319 2838 ft 132 kts 323°
2026-04-25 08:43 55.35552 38.57356 2829 ft 131 kts 323°
2026-04-25 08:43 55.36275 38.56407 2827 ft 130 kts 323°
2026-04-25 08:43 55.36998 38.55464 2826 ft 128 kts 323°
2026-04-25 08:43 55.37707 38.54536 2828 ft 127 kts 323°
2026-04-25 08:44 55.38421 38.53604 2829 ft 127 kts 323°
2026-04-25 08:44 55.39133 38.52671 2828 ft 127 kts 323°
2026-04-25 08:44 55.39840 38.51746 2832 ft 126 kts 323°
2026-04-25 08:44 55.40542 38.50826 2827 ft 127 kts 323°
2026-04-25 08:45 55.41266 38.49752 2555 ft 146 kts 314°
2026-04-25 08:45 55.41903 38.48436 2568 ft 136 kts 312°
2026-04-25 08:45 55.42609 38.47440 2680 ft 124 kts 323°
2026-04-25 08:45 55.43272 38.46573 2807 ft 113 kts 323°
2026-04-25 08:46 55.43923 38.45720 2832 ft 118 kts 323°
2026-04-25 08:46 55.44578 38.44862 2837 ft 122 kts 323°
2026-04-25 08:46 55.45274 38.43950 2836 ft 127 kts 323°
2026-04-25 08:46 55.45982 38.43026 2834 ft 127 kts 323°
2026-04-25 08:47 55.46699 38.42084 2836 ft 130 kts 323°
2026-04-25 08:47 55.47433 38.41127 2841 ft 133 kts 323°
2026-04-25 08:47 55.48182 38.40145 2845 ft 136 kts 323°
2026-04-25 08:47 55.48943 38.39148 2831 ft 134 kts 323°
2026-04-25 08:48 55.49694 38.38167 2841 ft 134 kts 323°
2026-04-25 08:48 55.50454 38.37172 2838 ft 137 kts 323°
2026-04-25 08:48 55.51219 38.36171 2834 ft 135 kts 323°
2026-04-25 08:48 55.51964 38.35199 2843 ft 131 kts 323°
2026-04-25 08:49 55.52690 38.34247 2829 ft 130 kts 323°
2026-04-25 08:49 55.53419 38.33294 2839 ft 132 kts 323°
2026-04-25 08:49 55.54166 38.32313 2841 ft 134 kts 323°
2026-04-25 08:49 55.54925 38.31320 2838 ft 136 kts 323°
2026-04-25 08:50 55.55683 38.30329 2836 ft 136 kts 324°
2026-04-25 08:50 55.56435 38.29348 2827 ft 131 kts 323°
2026-04-25 08:50 55.57158 38.28400 2831 ft 126 kts 323°
2026-04-25 08:50 55.57839 38.27514 2831 ft 118 kts 323°
2026-04-25 08:51 55.58467 38.26699 2825 ft 108 kts 323°
2026-04-25 08:51 55.59058 38.25921 2829 ft 107 kts 323°
2026-04-25 08:51 55.59684 38.25092 2833 ft 118 kts 323°
2026-04-25 08:51 55.60367 38.24184 2836 ft 129 kts 323°
2026-04-25 08:52 55.61104 38.23210 2838 ft 135 kts 323°
2026-04-25 08:52 55.61869 38.22202 2839 ft 138 kts 323°
2026-04-25 08:52 55.62646 38.21176 2839 ft 140 kts 323°
2026-04-25 08:52 55.63435 38.20136 2839 ft 142 kts 323°
2026-04-25 08:53 55.64229 38.19088 2829 ft 146 kts 322°
2026-04-25 08:53 55.65039 38.18018 2827 ft 145 kts 323°
2026-04-25 08:53 55.65843 38.16958 2839 ft 144 kts 323°
2026-04-25 08:53 55.66656 38.15886 2826 ft 147 kts 323°
2026-04-25 08:54 55.67477 38.14804 2828 ft 147 kts 323°
2026-04-25 08:54 55.68299 38.13726 2825 ft 143 kts 323°
2026-04-25 08:54 55.69050 38.12736 2828 ft 128 kts 323°
2026-04-25 08:54 55.69740 38.11829 2825 ft 122 kts 322°
2026-04-25 08:55 55.70410 38.10944 2842 ft 127 kts 323°
2026-04-25 08:55 55.71139 38.09978 2830 ft 127 kts 323°
2026-04-25 08:55 55.71824 38.09076 2826 ft 122 kts 322°
2026-04-25 08:55 55.72512 38.08165 2833 ft 130 kts 323°
2026-04-25 08:56 55.73262 38.07173 2838 ft 137 kts 323°
2026-04-25 08:56 55.74048 38.06132 2829 ft 142 kts 323°
2026-04-25 08:56 55.74853 38.05071 2838 ft 146 kts 323°
2026-04-25 08:56 55.75681 38.03977 2829 ft 149 kts 323°
2026-04-25 08:57 55.76507 38.02889 2832 ft 147 kts 323°
2026-04-25 08:57 55.77324 38.01811 2832 ft 146 kts 323°
2026-04-25 08:57 55.78134 38.00743 2831 ft 145 kts 323°
2026-04-25 08:57 55.78945 37.99674 2831 ft 144 kts 323°
2026-04-25 08:58 55.79741 37.98623 2844 ft 147 kts 323°
2026-04-25 08:58 55.80582 37.97515 2838 ft 152 kts 323°
2026-04-25 08:58 55.81429 37.96398 2841 ft 151 kts 323°
2026-04-25 08:58 55.82274 37.95282 2839 ft 151 kts 323°
2026-04-25 08:59 55.82618 37.94829 2840 ft 152 kts 323°
2026-04-25 09:00 55.83405 37.93787 2843 ft 153 kts 323°
2026-04-25 09:00 55.84260 37.92657 2832 ft 152 kts 323°
2026-04-25 09:01 55.85098 37.91551 2833 ft 148 kts 323°
2026-04-25 09:01 55.85921 37.90463 2832 ft 146 kts 323°
2026-04-25 09:01 55.86734 37.89388 2832 ft 145 kts 323°
2026-04-25 09:01 55.87545 37.88316 2846 ft 146 kts 323°
2026-04-25 09:02 55.88374 37.87219 2840 ft 149 kts 323°
2026-04-25 09:02 55.89216 37.86109 2839 ft 151 kts 323°
2026-04-25 09:02 55.89615 37.85581 2829 ft 152 kts 323°
2026-04-25 09:02 55.90020 37.85043 2830 ft 150 kts 323°
2026-04-25 09:03 55.90786 37.84028 2840 ft 152 kts 323°
2026-04-25 09:03 55.91641 37.82901 2837 ft 154 kts 323°
2026-04-25 09:03 55.92498 37.81768 2836 ft 153 kts 323°
2026-04-25 09:03 55.93352 37.80640 2837 ft 152 kts 323°
2026-04-25 09:04 55.94183 37.79541 2830 ft 149 kts 323°
2026-04-25 09:04 55.95015 37.78442 2836 ft 149 kts 323°
2026-04-25 09:04 55.95858 37.77328 2830 ft 150 kts 323°
2026-04-25 09:04 55.96687 37.76231 2840 ft 148 kts 324°
2026-04-25 09:05 55.97525 37.75124 2839 ft 152 kts 322°
2026-04-25 09:05 55.98469 37.74290 2842 ft 153 kts 346°
2026-04-25 09:05 55.99467 37.73890 2828 ft 142 kts 347°
2026-04-25 09:05 56.00421 37.73521 2830 ft 140 kts 347°
2026-04-25 09:06 56.01362 37.73143 2823 ft 137 kts 342°
2026-04-25 09:06 56.02028 37.72037 2828 ft 135 kts 288°
2026-04-25 09:06 56.01953 37.70454 2836 ft 130 kts 253°
2026-04-25 09:06 56.01670 37.68915 2827 ft 127 kts 245°
2026-04-25 09:07 56.01223 37.67594 2827 ft 125 kts 238°
2026-04-25 09:07 56.00770 37.66271 2826 ft 125 kts 247°
2026-04-25 09:07 56.00473 37.64790 2828 ft 130 kts 249°
2026-04-25 09:07 56.00211 37.63242 2800 ft 131 kts 254°
2026-04-25 09:08 55.99978 37.61664 2816 ft 131 kts 257°
2026-04-25 09:08 55.99778 37.60086 2747 ft 128 kts 257°
2026-04-25 09:08 55.99609 37.58619 2779 ft 115 kts 259°
2026-04-25 09:08 55.99452 37.57235 2654 ft 109 kts 258°
2026-04-25 09:09 55.99295 37.56095 2497 ft 87 kts 253°
2026-04-25 09:09 55.99117 37.55070 2341 ft 88 kts 256°
2026-04-25 09:09 55.98987 37.54003 2244 ft 87 kts 255°
2026-04-25 09:09 55.98827 37.52945 2128 ft 89 kts 255°
2026-04-25 09:10 55.98671 37.51880 1858 ft 87 kts 255°
2026-04-25 09:10 55.98532 37.50869 1577 ft 80 kts 257°
2026-04-25 09:10 55.98393 37.49894 1388 ft 80 kts 253°
2026-04-25 09:10 55.98233 37.48954 1271 ft 79 kts 252°
2026-04-25 09:11 55.97960 37.47012 1012 ft 81 kts 254°
2026-04-25 09:11 55.97812 37.46058 859 ft 80 kts 253°
2026-04-25 09:11 55.97679 37.45103 735 ft 78 kts 256°
2026-04-25 09:12 55.97541 37.44183 646 ft 75 kts 254°
2026-04-25 09:12 55.97468 37.43696 632 ft 0 kts 254°
2026-04-25 09:12 55.97434 37.43454 633 ft 38 kts 257°
2026-04-25 09:12 55.97403 37.43012 635 ft 31 kts 294°
2026-04-25 09:13 55.97500 37.42905 634 ft 0 kts 342°
2026-04-25 09:15 55.97514 37.42895 634 ft 12 kts 333°
2026-04-25 09:15 55.97700 37.42808 633 ft 38 kts 346°
2026-04-25 09:15 55.97798 37.42940 635 ft 27 kts 71°
2026-04-25 09:15 55.97859 37.43360 634 ft 34 kts 75°
2026-04-25 09:16 55.97948 37.43619 634 ft 21 kts 348°
2026-04-25 09:16 55.97959 37.43430 639 ft 17 kts 259°
2026-04-25 09:16 55.97965 37.43226 634 ft 17 kts 251°
2026-04-25 09:16 55.97963 37.43068 634 ft 13 kts 322°
2026-04-25 09:17 55.98028 37.43030 634 ft 0 kts 343°